Lexington Weather

Lexington, Massachusetts, USA

60°F
10/23/2020 5:36pm 
  • Lexington Conditions: Overcast
  • Temperature: 59.5°F / 15.3°CColder 2.7°F than last hour.
  • Dew Point: 53.4°FDecreased 2.5°Fsince last hour.
  • Relative Humidity: 80
  • Wind: Wind from SE SE Calm, 10-min avg: 2 mph, gust: 5 mph
  • Barometer: 30.08 inFalling 0.02  inHg/hr Falling Slowly
  • Visibility: 10 miles
  • Rain Today: 0.00 in
  •   

Regional Weather Roundup
for Boston / Norton, MA

        
000
ASUS41 KBOX 231805
RWRBOX

REGIONAL WEATHER ROUNDUP
NATIONAL WEATHER SERVICE BOSTON/NORTON MA
200 PM EDT FRI OCT 23 2020

NOTE:  "FAIR" INDICATES FEW OR NO CLOUDS BELOW 12,000 FEET WITH NO 
SIGNIFICANT WEATHER AND/OR OBSTRUCTIONS TO VISIBILITY.

MAZALL-231900-
EASTERN MASSACHUSETTS
  
CITY           SKY/WX    TMP DP  RH WIND       PRES   REMARKS
BOSTON         MOSUNNY   60  53  77 E10       30.20F                  
6HR MIN TEMP:  56; 6HR MAX TEMP:  62;                                

BEVERLY        MOSUNNY   66  47  50 SE8       30.18F                  
LAWRENCE       CLOUDY    67  52  58 E5        30.20F                  
BEDFORD        MOSUNNY   67  56  67 VRB3      30.17F                  
BLUE HILL        N/A     65  55  70 VRB5      30.18F                  
NORWOOD        PTSUNNY   71  56  58 CALM      30.18F                  
MARSHFIELD     SUNNY     64  55  72 NE9       30.19F                  
PLYMOUTH       SUNNY     68  55  63 NE8       30.18F                  
TAUNTON        SUNNY     71  57  61 E5        30.18F                  
NEW BEDFORD    SUNNY     71  54  54 SE6       30.17F                  
$$

MAZALL-231900-
CAPE COD AND THE ISLANDS
  
CITY           SKY/WX    TMP DP  RH WIND       PRES   REMARKS
FALMOUTH       SUNNY     68  46  45 SW6       30.18                   
HYANNIS        SUNNY     68  54  60 N9        30.17F                  
CHATHAM        SUNNY     65  54  67 NE8       30.20F                  
PROVINCETOWN   SUNNY     62  55  77 NE9       30.21F                  
NANTUCKET      SUNNY     66  55  67 NE9       30.18F                  
MARTHAS VNYRD  SUNNY     68  50  52 E6        30.18F                  
$$
 
MAZALL-231900-
CENTRAL AND WESTERN MASSACHUSETTS
  
CITY           SKY/WX    TMP DP  RH WIND       PRES   REMARKS
WORCESTER      CLOUDY    63  56  78 S6        30.19F                  
6HR MIN TEMP:  56; 6HR MAX TEMP:  64;                                

FITCHBURG      CLOUDY    65  57  75 S3        30.18F                  
ORANGE         CLOUDY    65  59  81 S9        30.17F                  
SPRINGFIELD    PTSUNNY   66  62  85 S6        30.15F                  
WESTFIELD      CLOUDY    67  62  84 S10       30.16F                  
NORTH ADAMS    MOSUNNY   74  58  57 MISG      30.11F                  
$$
 
RIZALL-231900-
RHODE ISLAND
  
CITY           SKY/WX    TMP DP  RH WIND       PRES   REMARKS
PROVIDENCE     CLOUDY    63  57  81 VRB5      30.20F                  
6HR MIN TEMP:  54; 6HR MAX TEMP:  63;                                

NEWPORT        SUNNY     63  57  81 NW8       30.19F                  
BLOCK ISLAND   PTSUNNY   61  56  83 N5        30.20F                  
SMITHFIELD     MOSUNNY   67  58  72 S5          N/A                   
WESTERLY       CLOUDY    61  56  83 CALM      30.21F                  
$$
 
CTZALL-231900-
CONNECTICUT
  
CITY           SKY/WX    TMP DP  RH WIND       PRES   REMARKS
BRADLEY INTL   PTSUNNY   67  61  81 S9        30.16F                  
6HR MIN TEMP:  63; 6HR MAX TEMP:  67; 6HR PCP:  0.03;                

HARTFORD       CLOUDY    67  59  75 S9        30.17F                  
BRIDGEPORT     CLOUDY    64  61  90 E10       30.18F FOG              
DANBURY        CLOUDY    64  62  93 SE6       30.18F                  
GROTON         CLOUDY    61  57  87 SW3       30.19F                  
NEW HAVEN      CLOUDY    64  61  90 E9        30.18F FOG              
CHESTER          N/A     63  59  88 SE5       30.19F                  
MERIDEN        CLOUDY    64  58  80 SE7       30.18F                  
WILLIMANTIC    CLOUDY    64  58  80 SW7       30.19F                  
OXFORD         CLOUDY    63  62  97 S7        30.19F                  
$$

MEZ002-015-021-024-NHZ003-005-008-011-012-014-VTZ005-008-231900-
NORTHERN NEW ENGLAND
  
CITY           SKY/WX    TMP DP  RH WIND       PRES   REMARKS
PORTLAND ME    CLOUDY    56  51  84 E9        30.22F                  
6HR MIN TEMP:  54; 6HR MAX TEMP:  58;                                

BANGOR ME      CLOUDY    59  46  62 S7        30.21F                  
CONCORD NH     CLOUDY    62  53  72 SE3       30.18F                  
MANCHESTER NH  PTSUNNY   67  54  63 NW3       30.16F                  
NASHUA NH      CLOUDY    67  58  72 SE5       30.18F                  
PORTSMOUTH NH  CLOUDY    58  49  72 E7        30.19F                  
JAFFREY NH     CLOUDY    61  56  83 S6        30.18F                  
KEENE NH       CLOUDY    64  59  83 S7        30.16F                  
BURLINGTON VT  MOSUNNY   73  58  59 S23       30.02F                  
MT. WASHINGTON FOG       46  46 100 W41G52      N/A  VSB 1/8          
$$

NYZ052-076-231900-
EASTERN NEW YORK
  
CITY           SKY/WX    TMP DP  RH WIND       PRES   REMARKS
ALBANY         MOSUNNY   72  60  66 S16G25    30.08F                  
6HR MIN TEMP:  59; 6HR MAX TEMP:  72;                                

NEW YORK CITY  CLOUDY    69  60  73 S9        30.16F                  
6HR MIN TEMP:  64; 6HR MAX TEMP:  71;                                

$$
 
ANZALL-231900-
MARINE OBSERVATIONS
  
STATION/POSITION TIME  TEMP    WIND        PRES    VSBY  WAVE
                       AIR SEA DIR/SP/G                  HT/PER
                 (UTC) (F)     (DEG/KT/KT) (MB)    (MI)  (FT/S)
BOSTON BUOY      1650   59 60   60/  4/  6 1022.5          4/12
BUZZARDS BAY     1700           10/  3/  4 1023.8F
NANTUCKET SOUND  1750      62   80/  6/  8   N/A           1/ 5
MASS BAY-STELLWA 1704   59 58   50/  6/  8 1022.9F  1 7/8  4/11
ISLE OF SHOALS   1700   56      80/  7/  8 1023.2F
S OF BLOCK IS    1726      64                N/A           6/11
$$

......................KEY.........................
  SKY/WX - SKY CONDITION/PRESENT WEATHER
  TMP    - TEMPERATURE IN FAHRENHEIT
  DWPT   - DEWPOINT IN FAHRENHEIT
  RH     - RELATIVE HUMIDITY IN PERCENT
  WIND   - DIRECTION AND SPEED IN MPH
  PRES   - MEAN SEA LEVEL PRESSURE IN INCHES OF HG
  WCI    - WIND CHILL INDEX
  VSB    - VISIBILITY IN MILES
  HX     - HEAT INDEX
  TC     - TEMPERATURE IN CELSIUS
  VRB    - VARIABLE WIND DIRECTION
  N/A    - NOT AVAILABLE
  
      

Other recent Regional Weather Roundups

Fri Oct 23, 5:05pm

Fri Oct 23, 4:04pm

Fri Oct 23, 3:04pm

Fri Oct 23, 1:04pm

Fri Oct 23, 12:04pm

Fri Oct 23, 11:04am

Fri Oct 23, 10:04am

Fri Oct 23, 9:04am

Fri Oct 23, 8:04am

Fri Oct 23, 7:04am

Fri Oct 23, 6:04am

Fri Oct 23, 5:04am

Fri Oct 23, 4:04am

Fri Oct 23, 3:04am

Fri Oct 23, 2:04am

Fri Oct 23, 1:04am

Fri Oct 23, 12:04am

Thu Oct 22, 11:04pm

Thu Oct 22, 10:04pm

Thu Oct 22, 9:05pm

Thu Oct 22, 8:04pm

Thu Oct 22, 7:05pm

Thu Oct 22, 6:04pm

Thu Oct 22, 5:04pm

Thu Oct 22, 4:05pm

Thu Oct 22, 3:04pm

Thu Oct 22, 2:05pm

Thu Oct 22, 1:04pm

Thu Oct 22, 12:04pm

Thu Oct 22, 11:04am

Thu Oct 22, 10:05am

Thu Oct 22, 9:04am

Thu Oct 22, 8:05am

Thu Oct 22, 7:04am

Thu Oct 22, 6:04am

Thu Oct 22, 5:04am

Thu Oct 22, 4:04am

Thu Oct 22, 3:04am

Thu Oct 22, 2:04am

Thu Oct 22, 1:04am

Thu Oct 22, 12:04am

Wed Oct 21, 11:05pm

Wed Oct 21, 10:04pm

Wed Oct 21, 9:04pm

Wed Oct 21, 8:04pm

Wed Oct 21, 7:04pm

Wed Oct 21, 6:04pm

Wed Oct 21, 5:05pm

Wed Oct 21, 4:04pm

Wed Oct 21, 3:04pm

Wed Oct 21, 2:05pm

Wed Oct 21, 1:04pm

Wed Oct 21, 12:04pm

Wed Oct 21, 11:04am

Wed Oct 21, 10:04am

Wed Oct 21, 9:04am

Wed Oct 21, 8:04am

Wed Oct 21, 7:04am

Wed Oct 21, 6:04am

Wed Oct 21, 5:04am

Wed Oct 21, 4:04am

Wed Oct 21, 3:04am

Wed Oct 21, 2:04am

Wed Oct 21, 1:04am

Wed Oct 21, 12:04am

Tue Oct 20, 11:05pm

Tue Oct 20, 10:04pm

Tue Oct 20, 9:04pm

Tue Oct 20, 8:05pm

Tue Oct 20, 7:04pm

Tue Oct 20, 6:04pm

Tue Oct 20, 5:05pm

Tue Oct 20, 4:04pm

Tue Oct 20, 3:05pm

Tue Oct 20, 2:07pm

Tue Oct 20, 1:04pm

Tue Oct 20, 12:04pm

Tue Oct 20, 11:04am

Tue Oct 20, 10:05am

Tue Oct 20, 9:04am

Tue Oct 20, 8:04am

Tue Oct 20, 7:04am

Tue Oct 20, 6:04am

Tue Oct 20, 5:04am

Tue Oct 20, 4:04am

Tue Oct 20, 3:04am

Tue Oct 20, 2:04am

Tue Oct 20, 1:04am

Tue Oct 20, 12:04am

Mon Oct 19, 11:04pm

Mon Oct 19, 10:04pm

Mon Oct 19, 9:04pm

Mon Oct 19, 8:04pm

Mon Oct 19, 7:04pm

Mon Oct 19, 6:04pm

Mon Oct 19, 5:04pm

Mon Oct 19, 4:04pm

Mon Oct 19, 3:04pm

Mon Oct 19, 2:04pm

Mon Oct 19, 1:05pm

Mon Oct 19, 12:04pm

Mon Oct 19, 11:04am

Mon Oct 19, 10:04am

Mon Oct 19, 9:04am

Mon Oct 19, 8:04am

Mon Oct 19, 7:04am

Mon Oct 19, 6:04am

Mon Oct 19, 5:04am

Mon Oct 19, 4:04am

Mon Oct 19, 3:04am

Mon Oct 19, 2:04am

Mon Oct 19, 1:04am

Mon Oct 19, 12:05am

Sun Oct 18, 11:04pm

Sun Oct 18, 10:04pm

Sun Oct 18, 9:04pm

Sun Oct 18, 8:04pm

Sun Oct 18, 7:05pm

Sun Oct 18, 6:04pm

Sun Oct 18, 5:05pm

Sun Oct 18, 4:05pm

Sun Oct 18, 3:04pm

Sun Oct 18, 2:05pm

Sun Oct 18, 1:04pm

Sun Oct 18, 12:04pm

Sun Oct 18, 11:04am

Sun Oct 18, 10:04am

Sun Oct 18, 9:04am

Sun Oct 18, 8:04am

Sun Oct 18, 7:04am

Sun Oct 18, 6:04am

Sun Oct 18, 5:04am

Sun Oct 18, 4:04am

Sun Oct 18, 3:04am

Sun Oct 18, 2:04am

Sun Oct 18, 1:04am

Sun Oct 18, 12:04am

Sat Oct 17, 11:05pm

Sat Oct 17, 10:04pm

Sat Oct 17, 9:04pm

Sat Oct 17, 8:04pm

Sat Oct 17, 7:04pm

Sat Oct 17, 6:04pm

Sat Oct 17, 5:05pm

Sat Oct 17, 4:04pm

Sat Oct 17, 3:04pm

Sat Oct 17, 2:05pm

Sat Oct 17, 1:05pm

Sat Oct 17, 12:04pm

Sat Oct 17, 11:05am

Sat Oct 17, 10:04am

Sat Oct 17, 9:04am

Sat Oct 17, 8:04am

Sat Oct 17, 7:04am

Sat Oct 17, 6:04am

Sat Oct 17, 5:04am

Sat Oct 17, 4:04am

Sat Oct 17, 3:04am

Sat Oct 17, 2:04am

Sat Oct 17, 1:05am

Sat Oct 17, 12:04am

Fri Oct 16, 11:05pm

Fri Oct 16, 10:04pm

Fri Oct 16, 9:05pm

Fri Oct 16, 8:04pm

Fri Oct 16, 7:05pm

Fri Oct 16, 6:04pm

Meta data:

ID: 887e724e-a67d-416a-ac5b-7b26a93c480d
Link: https://api.weather.gov/products/887e724e-a67d-416a-ac5b-7b26a93c480d